Station 51003 (LLNR 28005.7) - WESTERN HAWAII - 205 NM SW of Honolulu, HI Image indicating link to RSS feed of recent meteorological observations for station 51003


Conditions at 51003 as of
(7:30 pm HAST on 06/13/2024)
0530 GMT on 06/14/2024:
     

Click on the graph icon in the table below to see a time series plot of the last five days of that observation.

5-day plot - Wind Direction Wind Direction (WDIR): E ( 80 deg true )
5-day plot - Wind Speed Wind Speed (WSPD): 11.7 kts
5-day plot - Wind Gust Wind Gust (GST): 13.6 kts
5-day plot - Atmospheric Pressure Atmospheric Pressure (PRES):30.00 in
5-day plot - Air Temperature Air Temperature (ATMP): 78.4 °F
5-day plot - Dew Point Dew Point (DEWP): 70.9 °F
5-day plot - Heat Index Heat Index (HEAT): 81.0 °F
5-day plot - Wind Speed at 10 Meters Wind Speed at 10 meters (WSPD10M): 13.6 kts
5-day plot - Wind Speed at 20 Meters Wind Speed at 20 meters (WSPD20M): 13.6 kts
5-day plot -  Wind Speed, Wind Gust and Atmospheric Pressure Combined plot of Wind Speed, Gust, and Air Pressure
Supplemental Measurements
Highest 1-minute Wind Speed
Time (HAST)5-day plot - 1-Minute Wind Speed WSPD 5-day plot - 1-Minute Wind Direction WDIR
7:24 pm 13.6 kts-
Previous observations
TIME
(HAST)
5-day plot - Wind Direction
WDIR
 
5-day plot - Wind Speed
WSPD
kts
5-day plot - Wind Gust
GST
kts
5-day plot - Wave Height
WVHT
ft
5-day plot - Dominant Wave Period
DPD
sec
5-day plot - Average Wave Period
APD
sec
5-day plot - Mean Wave Direction
MWD
 
5-day plot - Atmospheric Pressure
PRES
in
5-day plot - Pressure Tendency
PTDY
in
5-day plot - Air Temperature
ATMP
°F
5-day plot - Water Temperature
WTMP
°F
5-day plot - Dew Point
DEWP
°F
5-day plot - Salinity
SAL
psu
5-day plot - Visibility
VIS
nmi
5-day plot - Tide (above MLLW)
TIDE
ft
2024-06-13 07:20 pm E 11.7 13.6 5.9 86.3 E29.99- 78.4- 70.7---
2024-06-13 07:10 pm E 11.7 13.6 5.9-6.3 E29.99- 78.4- 70.9---
2024-06-13 07:00 pm E 11.7 15.5----29.98+0.01 78.3- 70.5---
2024-06-13 06:50 pm E 11.7 15.5 5.9 75.9 E29.98- 78.3- 70.9---
2024-06-13 06:40 pm E 11.7 15.5 5.9-5.9 E29.98- 78.3- 70.9---
2024-06-13 06:30 pm E 11.7 15.5----29.97- 78.4- 71.1---
2024-06-13 06:20 pm E 13.6 15.5 6.2 76.3 E29.97- 78.3- 70.3---
2024-06-13 06:10 pm E 11.7 15.5 6.2-6.3 E29.97- 78.4- 70.7---
2024-06-13 06:00 pm E 11.7 15.5----29.96-0.01 78.3- 70.2---
2024-06-13 05:50 pm E 11.7 15.5 6.2 76.1ENE29.96- 78.1- 70.7---
2024-06-13 05:40 pm E 13.6 15.5 6.2-6.1ENE29.96- 78.1- 70.9---
2024-06-13 05:30 pm E 13.6 17.5----29.96- 78.3- 71.1---
2024-06-13 05:20 pm E 13.6 17.5 5.9 135.9SSE29.96- 78.1- 70.5---
2024-06-13 05:10 pm E 13.6 17.5 5.9-5.9SSE29.96- 78.3- 70.9---
2024-06-13 05:00 pm E 15.5 17.5----29.96-0.03 78.3- 70.7---
2024-06-13 04:50 pm E 13.6 17.5 5.9 85.8ESE29.96- 78.3- 71.2---
2024-06-13 04:40 pm E 15.5 17.5 5.9-5.8ESE29.96- 78.4- 71.2---
2024-06-13 04:30 pm E 15.5 19.4----29.96- 78.3- 70.7---
2024-06-13 04:20 pm E 15.5 19.4 6.2 76.0ENE29.96- 78.1- 71.4---
2024-06-13 04:10 pm E 15.5 19.4 6.2-6.0ENE29.97- 78.1- 71.4---
2024-06-13 04:00 pm E 15.5 19.4----29.97-0.04 78.1- 71.4---
2024-06-13 03:50 pm E 15.5 19.4 5.6 85.8 E29.97- 78.3- 71.4---
2024-06-13 03:40 pm E 13.6 17.5----29.97- 78.1- 72.0---
2024-06-13 03:30 pm E 13.6 17.5----29.97- 77.9- 71.8---
2024-06-13 03:20 pm E 13.6 17.5 5.6 145.8 SE29.97- 77.7- 71.6---
2024-06-13 03:10 pm E 13.6 17.5 5.6-5.8 SE29.98- 77.9- 72.1---
2024-06-13 03:00 pm E 15.5 17.5----29.98-0.05 78.1- 72.0---
2024-06-13 02:50 pm E 15.5 17.5 5.6 85.9 E29.98- 78.1- 71.6---
2024-06-13 02:40 pm E 13.6 17.5 5.6-5.9 E29.98- 77.9- 71.4---
2024-06-13 02:30 pm E 13.6 17.5----29.98- 77.7- 71.4---
2024-06-13 02:20 pm E 13.6 17.5 5.6 96.0 E29.99- 77.5- 72.0---
2024-06-13 02:10 pm E 15.5 19.4 5.6-6.0 E29.99- 77.2- 72.1---
2024-06-13 02:00 pm E 15.5 19.4----29.99-0.04 77.0- 72.1---
2024-06-13 01:50 pm E 15.5 19.4 5.6 86.0ESE29.99- 76.3- 72.5---
2024-06-13 01:40 pm E 15.5 17.5----29.99- 75.0- 73.0---
2024-06-13 01:30 pm E 11.7 15.5----30.00- 74.5- 73.2---
2024-06-13 01:20 pm E 13.6 19.4 5.6 76.2 E30.01- 74.8- 73.4---
2024-06-13 01:10 pm E 15.5 19.4 5.6-6.2 E30.01- 75.0- 73.2---
2024-06-13 01:00 pm E 17.5 21.4----30.01-0.03 75.6- 73.2---
2024-06-13 12:50 pm E 15.5 21.4 5.6 86.5 E30.01- 77.4- 72.9---
2024-06-13 12:40 pm E 11.7 13.6 5.6-6.5 E30.01- 76.6- 72.3---
2024-06-13 12:30 pm E 9.7 13.6----30.01- 76.6- 73.6---
2024-06-13 12:20 pm E 7.8 9.7 5.6 86.2 E30.02- 76.5- 73.6---
2024-06-13 12:10 pm E 9.7 11.7 5.6-6.2 E30.03- 77.2- 73.4---
2024-06-13 12:00 pm E 7.8 9.7----30.03-0.01 76.8- 72.7---
2024-06-13 11:50 am E 5.8 9.7 5.6 146.5 SE30.03- 76.3- 72.0---
2024-06-13 11:40 am E 5.8 9.7 5.6-6.5 SE30.04- 75.9- 71.6---
2024-06-13 11:30 am E 7.8 9.7----30.04- 75.4- 71.4---
2024-06-13 11:20 amESE 9.7 11.7 5.6 76.1ENE30.04- 74.7- 71.2---
2024-06-13 11:10 amESE 11.7 15.5 5.6-6.1ENE30.03- 74.3- 71.4---
2024-06-13 11:00 am E 15.5 19.4----30.03+0.01 74.7- 71.8---
2024-06-13 10:50 am E 17.5 19.4 5.9 106.4NNE30.03- 76.5- 72.9---
2024-06-13 10:40 am NE 13.6 21.4 5.9-6.4NNE30.03- 77.9- 72.5---
2024-06-13 10:30 am NE 9.7 13.6----30.04- 78.1- 72.3---
2024-06-13 10:20 am NE 9.7 13.6 5.6 146.5ESE30.04- 78.3- 72.0---
2024-06-13 10:10 am NE 9.7 13.6 5.6-6.5ESE30.04- 78.1- 71.6---
2024-06-13 10:00 am NE 9.7 13.6----30.04+0.03 78.4- 72.0---
2024-06-13 09:50 am NE 9.7 13.6 5.6 76.1ENE30.04- 78.6- 71.8---
2024-06-13 09:40 amENE 9.7 13.6----30.04- 79.2- 71.4---
2024-06-13 09:30 am E 7.8 9.7----30.04- 78.6- 70.0---
2024-06-13 09:20 am E 9.7 11.7 6.2 86.6 E30.04- 78.1- 70.0---
2024-06-13 09:10 am E 9.7 11.7 6.2-6.6 E30.04- 78.1- 70.9---
2024-06-13 09:00 amENE 9.7 11.7----30.04+0.04 77.9- 71.2---
2024-06-13 08:50 amENE 9.7 11.7 5.9 96.1ESE30.04- 78.1- 71.4---
2024-06-13 08:40 amENE 9.7 11.7----30.04- 77.9- 71.1---
2024-06-13 08:30 amENE 9.7 13.6----30.04- 78.3- 71.6---
2024-06-13 08:20 am NE 11.7 13.6 5.9 76.2ENE30.03- 78.1- 71.2---
2024-06-13 08:10 amENE 9.7 11.7 5.9-6.2ENE30.03- 78.1- 71.4---
2024-06-13 08:00 amENE 9.7 11.7----30.03+0.04 77.9- 71.8---
2024-06-13 07:50 amENE 9.7 11.7 5.6 146.2 SE30.03- 77.7- 72.0---
2024-06-13 07:40 am E 9.7 11.7 5.6-6.2 SE30.03- 77.7- 72.3---
2024-06-13 07:30 amENE 9.7 13.6----30.02- 77.5- 72.3---
2024-06-13 07:20 amENE 9.7 11.7 5.6 146.0SSE30.02- 77.2- 72.5---
2024-06-13 07:10 amENE 11.7 13.6 5.6-6.0SSE30.02- 77.2- 72.9---
2024-06-13 07:00 amENE 11.7 15.5----30.01+0.03 77.2- 73.0---
2024-06-13 06:50 amENE 13.6 17.5 5.9 146.1 SE30.01- 77.2- 73.2---
2024-06-13 06:40 amENE 13.6 17.5----30.01- 77.7- 73.8---
2024-06-13 06:30 amENE 13.6 17.5----30.01- 77.5- 73.2---
2024-06-13 06:20 am NE 13.6 17.5 5.9 146.1 SE30.01- 77.7- 73.4---
2024-06-13 06:10 am NE 13.6 15.5 5.9-6.1 SE30.01- 77.5- 73.4---
2024-06-13 06:00 amENE 11.7 15.5----30.00+0.01 78.3- 73.8---
2024-06-13 05:50 am NE 11.7 15.5 5.9 146.4SSE30.00- 78.1- 73.0---
2024-06-13 05:40 amENE 11.7 15.5 5.9-6.4SSE30.00- 77.5- 73.2---
2024-06-13 05:30 amENE 9.7 13.6----30.00- 77.5- 73.6---
2024-06-13 05:20 amENE 11.7 15.5 5.9 146.4 SE29.99- 77.4- 73.0---
2024-06-13 05:10 amENE 11.7 15.5 5.9-6.4 SE29.99- 77.9- 73.2---
2024-06-13 05:00 amENE 13.6 17.5----29.99-0.01 77.5- 72.7---
2024-06-13 04:50 amENE 11.7 17.5 5.6 96.1 E29.99- 78.6- 73.6---
2024-06-13 04:40 amENE 11.7 13.6----29.99- 78.4- 73.2---
2024-06-13 04:30 amENE 11.7 13.6----29.99- 78.4- 73.0---
2024-06-13 04:20 amENE 11.7 13.6 5.6 96.0 E29.99- 78.4- 72.9---
2024-06-13 04:10 amENE 11.7 13.6 5.6-6.0 E29.99- 78.6- 72.9---
2024-06-13 04:00 amENE 11.7 13.6----29.99-0.03 78.6- 72.5---
2024-06-13 03:50 amENE 11.7 15.5 5.9 146.1SSE29.99- 78.3- 72.1---
2024-06-13 03:40 amENE 11.7 13.6----29.99- 78.4- 72.9---
2024-06-13 03:30 amENE 11.7 15.5----29.99- 78.6- 72.9---
2024-06-13 03:20 amENE 11.7 15.5 5.2 145.8ESE29.99- 78.4- 72.3---
2024-06-13 03:10 amENE 11.7 15.5 5.2-5.8ESE29.99- 78.6- 72.9---
2024-06-13 03:00 amENE 11.7 15.5----29.99-0.04 78.4- 72.5---
2024-06-13 02:50 amENE 11.7 13.6 5.2 76.1ENE29.99- 78.6- 72.7---
2024-06-13 02:40 am NE 13.6 15.5 5.2-6.1ENE29.99- 78.4- 72.5---
2024-06-13 02:30 am NE 11.7 13.6----29.99- 78.6- 72.9---
2024-06-13 02:20 amENE 11.7 15.5 6.2 156.4SSE30.00- 78.8- 73.0---
2024-06-13 02:10 amENE 13.6 15.5----30.00- 78.4- 72.3---
2024-06-13 02:00 amENE 13.6 15.5----30.00-0.04 78.6- 73.0---
2024-06-13 01:50 amENE 11.7 15.5 5.6 76.1 E30.00- 78.8- 73.2---
2024-06-13 01:40 amENE 11.7 15.5----30.00- 78.6- 72.7---
2024-06-13 01:30 amENE 11.7 15.5----30.01- 78.6- 72.7---
2024-06-13 01:20 amENE 11.7 15.5 5.6 76.1ENE30.01- 78.8- 72.5---
2024-06-13 01:10 amENE 11.7 13.6 5.6-6.1ENE30.01- 78.6- 72.3---
2024-06-13 01:00 am NE 11.7 13.6----30.01-0.02 78.8- 72.9---
2024-06-13 12:50 amENE 11.7 15.5 5.6 76.1ENE30.02- 78.6- 72.7---
2024-06-13 12:40 amENE 11.7 15.5----30.02- 79.0- 73.0---
2024-06-13 12:30 amENE 11.7 15.5----30.02- 78.8- 72.5---
2024-06-13 12:20 amENE 11.7 15.5 5.6 146.0 SE30.03- 79.0- 72.9---
2024-06-13 12:10 amENE 13.6 15.5 5.6-6.0 SE30.03- 79.0- 72.5---
2024-06-13 12:00 amENE 11.7 15.5----30.03+0.01 79.0- 72.9---
2024-06-12 11:50 pmENE 11.7 13.6 5.6 146.1 SE30.03- 78.8- 72.9---
2024-06-12 11:40 pmENE 11.7 13.6----30.04- 79.0- 73.4---
2024-06-12 11:30 pmENE 11.7 15.5----30.04- 78.8- 73.2---
2024-06-12 11:20 pmENE 11.7 15.5 5.9 66.0ENE30.04- 79.0- 73.6---
2024-06-12 11:10 pmENE 13.6 15.5 5.9-6.0ENE30.04- 78.8- 73.6---
2024-06-12 11:00 pmENE 13.6 15.5----30.04+0.03 78.8- 73.9---
2024-06-12 10:50 pmENE 11.7 13.6 5.6 75.8 E30.04- 78.8- 74.5---
2024-06-12 10:40 pm NE 11.7 15.5 5.6-5.8 E30.04- 78.6- 74.3---
2024-06-12 10:30 pm NE 11.7 13.6----30.04- 78.8- 74.3---
2024-06-12 10:20 pm NE 13.6 17.5 5.9 156.0ESE30.04- 78.8- 73.9---
2024-06-12 10:10 pm NE 13.6 17.5 5.9-6.0ESE30.04- 79.2- 73.9---
2024-06-12 10:00 pmENE 13.6 15.5----30.03+0.03 79.0- 73.4---
2024-06-12 09:50 pmENE 11.7 15.5 5.6 75.9ENE30.03- 79.2- 73.8---
2024-06-12 09:40 pmENE 13.6 15.5----30.03- 79.0- 73.6---
2024-06-12 09:30 pmENE 13.6 15.5----30.03- 79.2- 73.9---
2024-06-12 09:20 pmENE 13.6 15.5 5.9 156.2SSE30.03- 79.0- 73.6---
2024-06-12 09:10 pm NE 13.6 15.5 5.9-6.2SSE30.03- 79.2- 73.8---
2024-06-12 09:00 pm NE 13.6 17.5----30.03+0.04 79.2- 73.8---
2024-06-12 08:50 pm NE 13.6 15.5 5.6 146.3 SE30.02- 79.0- 73.6---
2024-06-12 08:40 pmENE 13.6 15.5----30.02- 78.8- 73.9---
2024-06-12 08:30 pm NE 11.7 15.5----30.02- 78.3- 74.3---
2024-06-12 08:20 pm NE 13.6 19.4 5.6 85.9 E30.02- 78.1- 73.6---
2024-06-12 08:10 pmENE 13.6 19.4 5.6-5.9 E30.02- 79.3- 73.8---
2024-06-12 08:00 pmENE 13.6 15.5----30.01+0.02 79.2- 73.2---
2024-06-12 07:50 pmENE 13.6 15.5 5.2 86.0 E30.01- 79.2- 73.6---
2024-06-12 07:40 pmENE 13.6 15.5 5.2-6.0 E30.01- 79.2- 73.6---
2024-06-12 07:30 pmENE 13.6 17.5----30.01- 79.3- 73.8---
2024-06-12 07:20 pmENE 13.6 17.5 5.9 86.3 E30.01- 79.2- 73.6---
2024-06-12 07:10 pmENE 13.6 15.5 5.9-6.3 E30.00- 79.3- 73.9---
2024-06-12 07:00 pm NE 13.6 15.5----30.00+0.00 79.2- 73.6---
2024-06-12 06:50 pm NE 13.6 15.5 5.6 86.2ESE30.00- 79.0- 73.4---

Detailed Wave Summary
for 51003 as of
(7:10 pm HAST on 06/13/2024)
0510 GMT on 06/14/2024:

These wave data are displayed in rounded times.

     

Click on the graph icon in the table below to see a time series plot of the last five days of that observation.

5-day plot - Significant Wave Height Significant Wave Height (WVHT): 5.9 ft
5-day plot - Swell Height Swell Height (SwH): 5.2 ft
5-day plot - Swell Period Swell Period (SwP): 7.7 sec
5-day plot - Swell Direction Swell Direction (SwD): E
5-day plot - Wind Wave Height Wind Wave Height (WWH): 3.0 ft
5-day plot - Wind Wave Period Wind Wave Period (WWP): 4.8 sec
5-day plot - Wind Wave Direction Wind Wave Direction (WWD): E
5-day plot - Wave Steepness Wave Steepness (STEEPNESS): STEEP
5-day plot - Average Wave Period Average Wave Period (APD): 6.3 sec
Previous observations
TIME
(HAST)
5-day plot - Wave Height
WVHT
ft
5-day plot - Swell Height
SwH
ft
5-day plot - Swell Period
SwP
sec
5-day plot - Swell Direction
SwD
 
5-day plot - Wind Wave Height
WWH
ft
5-day plot - Wind Wave Period
WWP
sec
5-day plot - Wind Wave Direction
WWD
 
5-day plot - Wave Steepness
STEEPNESS
 
5-day plot - Average Wave Period
APD
sec
2024-06-13 06:40 pm 5.9 4.9 7.1 E 3.3 5.0 E STEEP 5.9
2024-06-13 06:10 pm 6.2 5.2 7.1 E 3.3 5.3 E STEEP 6.3
2024-06-13 05:40 pm 6.2 4.9 7.1ENE 3.9 6.2 ENE STEEP 6.1
2024-06-13 05:10 pm 5.9 4.6 12.9SSE 3.9 5.9 ENE SWELL 5.9
2024-06-13 04:40 pm 5.9 3.9 7.7ESE 4.3 5.6 ENE STEEP 5.8
2024-06-13 04:10 pm 6.2 3.6 13.8 SE 5.2 6.7 ENE STEEP 6.0
2024-06-13 03:40 pm 5.6 3.9 7.7 E 3.9 6.7 E STEEP 5.8
2024-06-13 03:10 pm 5.6 3.9 13.8 SE 4.3 6.7 NE AVERAGE 5.8
2024-06-13 02:40 pm 5.6 3.9 7.7 E 3.9 6.2 ENE STEEP 5.9
2024-06-13 02:10 pm 5.6 4.3 9.1 E 3.6 6.7 ENE AVERAGE 6.0
2024-06-13 01:40 pm 5.6 3.6 8.3ESE 3.9 7.1 ESE AVERAGE 6.0
2024-06-13 01:10 pm 5.6 4.3 7.1 E 3.6 5.6 E STEEP 6.2
2024-06-13 12:40 pm 5.6 4.9 8.3 E 2.6 5.3 ENE AVERAGE 6.5
2024-06-13 12:10 pm 5.6 5.2 8.3 E 2.0 3.7 ENE AVERAGE 6.2
2024-06-13 11:40 am 5.6 5.6 13.8 SE 1.6 3.7 ENE SWELL 6.5
2024-06-13 11:10 am 5.6 4.9 6.7ENE 3.0 5.6 ENE STEEP 6.1
2024-06-13 10:40 am 5.9 3.6 10.0NNE 4.6 7.7 E AVERAGE 6.4
2024-06-13 10:10 am 5.6 5.2 13.8ESE 2.0 3.8 ENE SWELL 6.5
2024-06-13 09:40 am 5.6 4.9 6.7ENE 2.0 4.3 ENE STEEP 6.1
2024-06-13 09:10 am 6.2 5.9 7.7 E 1.6 4.2 ENE STEEP 6.6
2024-06-13 08:40 am 5.9 5.2 9.1ESE 2.3 4.0 ENE AVERAGE 6.1
2024-06-13 08:10 am 5.9 5.6 6.7ENE 2.3 3.8 NE STEEP 6.2
2024-06-13 07:40 am 5.6 5.2 13.8 SE 2.0 4.3 ENE SWELL 6.2
2024-06-13 07:10 am 5.6 4.6 13.8SSE 3.3 5.3 ENE SWELL 6.0
2024-06-13 06:40 am 5.9 4.9 13.8 SE 3.6 5.6 ENE SWELL 6.1
2024-06-13 06:10 am 5.9 4.6 13.8 SE 3.6 5.9 ENE SWELL 6.1
2024-06-13 05:40 am 5.9 5.2 13.8SSE 2.6 4.8 ENE SWELL 6.4
2024-06-13 05:10 am 5.9 5.2 13.8 SE 2.6 5.0 NE SWELL 6.4
2024-06-13 04:40 am 5.6 4.6 9.1 E 3.0 5.6 ENE AVERAGE 6.1
2024-06-13 04:10 am 5.6 4.9 9.1 E 2.6 4.3 NE AVERAGE 6.0
2024-06-13 03:40 am 5.9 4.9 13.8SSE 3.3 5.6 E SWELL 6.1
2024-06-13 03:10 am 5.2 4.3 13.8ESE 3.3 4.5 ENE SWELL 5.8
2024-06-13 02:40 am 5.2 4.3 6.7ENE 3.3 5.6 ENE STEEP 6.1
2024-06-13 02:10 am 6.2 4.9 14.8SSE 3.6 5.9 ENE SWELL 6.4
2024-06-13 01:40 am 5.6 4.6 7.1 E 3.0 5.0 ENE STEEP 6.1
2024-06-13 01:10 am 5.6 4.6 6.7ENE 3.0 5.9 ENE STEEP 6.1
2024-06-13 12:40 am 5.6 4.6 6.7ENE 3.0 4.8 ENE STEEP 6.1
2024-06-13 12:10 am 5.6 4.3 13.8 SE 3.6 5.9 ENE SWELL 6.0
2024-06-12 11:40 pm 5.6 4.6 13.8 SE 2.6 4.3 NE SWELL 6.1
2024-06-12 11:10 pm 5.9 4.6 7.7 E 3.6 6.2 ENEVERY_STEEP 6.0
2024-06-12 10:40 pm 5.6 4.6 7.1 E 3.3 5.9 E STEEP 5.8
2024-06-12 10:10 pm 5.9 4.6 14.8ESE 3.6 5.0 E SWELL 6.0
2024-06-12 09:40 pm 5.6 4.6 6.7ENE 3.6 5.6 E STEEP 5.9
2024-06-12 09:10 pm 5.9 4.6 14.8SSE 3.9 6.2 E SWELL 6.2
2024-06-12 08:40 pm 5.6 4.3 13.8 SE 3.6 5.9 ENE SWELL 6.3
2024-06-12 08:10 pm 5.6 3.9 8.3 E 3.9 6.7 E AVERAGE 5.9
2024-06-12 07:40 pm 5.2 3.9 8.3 E 3.6 6.7 E AVERAGE 6.0
2024-06-12 07:10 pm 5.9 4.9 7.7 E 3.3 6.2 E STEEP 6.3

Plot of wave energy versus frequency (and period)